Home   Weather   Brooklyn   Past weeks
Flag for USA

Past Weather in Brooklyn, New York, USA — Yesterday and Last 2 Weeks

Now
31 °F

Clear.


Feels Like: 24 °F
Forecast: 32 / 21 °F
Wind: 7 mph from Northwest

Location: New York City - Central Park

Current Time: Jan 21, 2020 at 6:37:43 pm

Latest Report: Jan 21, 2020 at 5:51 pm


Visibility: 10 mi

Pressure: 30.42 "Hg

Humidity: 33%

Dew Point: 5 °F

Location of BrooklynLocation

Past Weather in Brooklyn — Graph

°F

Brooklyn Temperature Yesterday

Maximum temperature yesterday: 31 °F (at 2:51 pm)
Minimum temperature yesterday: 20 °F (at 6:51 am)
Average temperature yesterday: 25 °F

High & Low Weather Summary for the Past Weeks

 TemperatureHumidityPressure
High68 °F (Jan 11, 1:51 pm)96% (Jan 14, 9:51 pm)30.74 "Hg (Jan 14, 9:51 pm)
Low20 °F (Jan 18, 12:51 am)22% (Jan 20, 3:51 pm)29.67 "Hg (Jan 19, 4:51 am)
Average40 °F61%30.21 "Hg
* Reported Jan 6 4:51 pm — Jan 21 4:51 pm, Brooklyn. Weather by CustomWeather, © 2020

Note: Actual official high and low records may vary slightly from our data, if they occured in-between our weather recording intervals... More about our weather records

Brooklyn Weather History for the Previous 24 Hours

Scroll right to see more
 ConditionsComfort  
Time TempWeatherWind HumidityBarometerVisibility
4:51 pm
Tue, Jan 21
32 °FSunny.6 mph30%30.41 "Hg10 mi
3:51 pm32 °FSunny.6 mph32%30.40 "Hg10 mi
2:51 pm32 °FSunny.6 mph29%30.40 "Hg10 mi
1:51 pm31 °FSunny.6 mph30%30.40 "Hg10 mi
12:51 pm30 °FSunny.7 mph38%30.40 "Hg10 mi
11:51 am28 °FSunny.6 mph43%30.43 "Hg10 mi
10:51 am25 °FSunny.6 mph53%30.46 "Hg10 mi
9:51 am23 °FSunny.No wind55%30.46 "Hg10 mi
8:51 am22 °FSunny.N/A57%30.45 "Hg10 mi
7:51 am21 °FSunny.No wind60%30.45 "Hg10 mi
5:51 am20 °FClear.No wind60%30.41 "Hg10 mi
4:51 am20 °FClear.3 mph60%30.40 "Hg10 mi
3:51 am20 °FClear.8 mph57%30.39 "Hg10 mi
2:51 am21 °FClear.No wind52%30.40 "Hg10 mi
1:51 am20 °FClear.5 mph52%30.39 "Hg10 mi
12:51 am21 °FClear.N/A47%30.37 "Hg10 mi
11:51 pm
Mon, Jan 20
22 °FClear.9 mph42%30.38 "Hg10 mi
10:51 pm23 °FClear.7 mph36%30.38 "Hg10 mi
9:51 pm24 °FClear.3 mph35%30.37 "Hg10 mi
8:51 pm26 °FClear.5 mph29%30.36 "Hg10 mi
7:51 pm27 °FClear.7 mph25%30.36 "Hg10 mi
6:51 pm28 °FClear.6 mph28%30.34 "Hg10 mi
Weather by CustomWeather, © 2020

See weather overview

Advertising